K5GBW Weather Reports


time (UTC)temp
F
wind
direction
speed
knots
gust
knots
rain 1hr
in
rain 24hr
in
rain mn
in
humidity
%
barometer
mb
20260906131616 66 115 0.0 1.7 0.00 0.01 0.00 97 1019.8
20260906130107 66 0 0.0 0.0 0.00 0.01 0.00 97 1019.7
20260906124557 65 0 0.0 0.0 0.00 0.01 0.00 97 1019.4
20260906123057 63 0 0.0 0.0 0.00 0.01 0.00 98 1019.4
20260906121601 63 0 0.0 0.0 0.00 0.01 0.00 98 1019.3
20260906114607 61 0 0.0 0.0 0.00 0.01 0.00 98 1018.8
20260906113105 60 0 0.0 0.0 0.00 0.01 0.00 98 1018.9
20260906111600 61 0 0.0 0.0 0.00 0.01 0.00 98 1018.5
20260906110106 61 0 0.0 0.0 0.00 0.01 0.00 98 1018.4
20260906104601 62 0 0.0 0.0 0.00 0.01 0.00 98 1018.5
20260906103103 62 0 0.0 0.0 0.00 0.01 0.00 98 1018.5
20260906101601 63 0 0.0 0.0 0.00 0.01 0.00 98 1018.3
20260906100055 62 0 0.0 0.0 0.00 0.01 0.00 98 1018.1
20260906094619 62 0 0.0 0.0 0.00 0.01 0.00 98 1018.0
20260906093104 63 0 0.0 0.0 0.00 0.01 0.00 98 1018.0
20260906091602 64 0 0.0 0.0 0.00 0.01 0.00 98 1018.1
20260906090120 63 0 0.0 0.0 0.00 0.01 0.00 99 1018.2
20260906084600 62 0 0.0 0.0 0.00 0.01 0.00 98 1018.1
20260906083057 62 0 0.0 0.0 0.00 0.01 0.00 98 1018.1
20260906081557 63 0 0.0 0.0 0.00 0.01 0.00 98 1018.0
20260906080059 63 0 0.0 0.0 0.00 0.01 0.00 98 1017.8
20260906074605 63 0 0.0 0.0 0.00 0.01 0.00 98 1017.8
20260906073100 63 0 0.0 0.0 0.00 0.01 0.00 98 1017.7
20260906071604 63 0 0.0 0.0 0.00 0.01 0.00 98 1017.7
20260906070109 64 0 0.0 0.0 0.00 0.01 0.00 98 1017.8
20260906064607 64 0 0.0 0.0 0.00 0.01 0.00 98 1017.9
20260906063102 64 0 0.0 0.0 0.00 0.01 0.00 98 1017.9
20260906061612 64 0 0.0 0.0 0.00 0.01 0.00 98 1017.8
20260906060107 64 0 0.0 0.0 0.00 0.01 0.00 98 1017.8
20260906054558 63 0 0.0 0.0 0.00 0.01 0.00 98 1017.7
20260906053101 64 0 0.0 0.0 0.00 0.01 0.00 98 1017.7
20260906051600 64 0 0.0 0.0 0.00 0.01 0.00 98 1017.6
20260906050109 65 0 0.0 0.0 0.00 0.01 0.00 98 1017.7
20260906044603 65 0 0.0 0.0 0.00 0.01 0.01 98 1017.4
20260906043100 65 0 0.0 0.0 0.00 0.01 0.01 98 1017.2
20260906041557 65 0 0.0 0.0 0.00 0.01 0.01 97 1017.2
20260906040107 65 0 0.0 0.0 0.00 0.01 0.01 97 1017.1
20260906034602 66 0 0.0 0.9 0.00 0.01 0.01 97 1017.2
20260906033102 66 0 0.0 0.9 0.00 0.01 0.01 97 1017.3
20260906031605 66 0 0.0 0.9 0.00 0.01 0.01 97 1017.3
20260906030105 66 0 0.0 0.0 0.00 0.01 0.01 97 1017.1
20260906024601 67 0 0.0 1.7 0.00 0.01 0.01 97 1017.0
20260906023106 67 0 0.0 1.7 0.00 0.01 0.01 97 1016.9
20260906021606 67 63 0.0 1.7 0.00 0.01 0.01 97 1017.1
20260906020101 67 46 0.0 1.7 0.00 0.01 0.01 96 1017.2
20260906014608 68 30 0.0 1.7 0.00 0.01 0.01 96 1017.0
20260906013103 68 0 0.0 3.5 0.00 0.01 0.01 95 1017.1
20260906011619 68 0 0.0 2.6 0.00 0.01 0.01 95 1016.9
20260906010105 69 0 0.0 1.7 0.00 0.01 0.01 95 1016.8
20260906004605 69 0 0.0 3.5 0.00 0.01 0.01 94 1016.7
20260906003111 70 152 0.0 2.6 0.00 0.01 0.01 95 1016.6
20260906001604 70 44 0.9 2.6 0.00 0.01 0.01 95 1016.6
20260905234603 70 14 1.7 4.3 0.00 0.01 0.01 95 1016.8
20260905233136 70 0 1.7 7.0 0.00 0.01 0.01 95 1016.8
20260905231606 70 315 0.0 4.3 0.00 0.01 0.01 95 1016.7
20260905230104 70 44 0.0 4.3 0.00 0.01 0.01 95 1016.6
20260905224612 70 122 0.9 5.2 0.00 0.01 0.01 94 1016.7
20260905223106 71 39 0.9 5.2 0.00 0.01 0.01 93 1016.7
20260905221608 71 22 0.0 3.5 0.00 0.01 0.01 93 1016.3
20260905220105 71 51 0.9 6.1 0.00 0.01 0.01 92 1016.4
20260905214600 72 28 0.9 7.8 0.00 0.01 0.01 91 1016.2
20260905213105 72 165 0.9 5.2 0.00 0.01 0.01 91 1016.0
20260905211604 73 94 1.7 5.2 0.00 0.01 0.01 90 1015.9
20260905210105 74 26 2.6 8.7 0.00 0.01 0.01 88 1015.7
20260905204559 75 138 3.5 7.8 0.00 0.01 0.01 88 1015.7
20260905203056 74 347 1.7 7.0 0.00 0.01 0.01 90 1015.7
20260905201608 76 77 2.6 5.2 0.00 0.01 0.01 88 1015.9
20260905200107 77 53 1.7 4.3 0.00 0.01 0.01 88 1015.9
20260905194601 78 5 2.6 5.2 0.00 0.01 0.01 87 1015.7
20260905193056 77 56 1.7 7.0 0.00 0.01 0.01 90 1015.8
20260905191610 77 311 1.7 7.0 0.00 0.01 0.01 88 1015.8
20260905190132 78 43 1.7 5.2 0.00 0.01 0.01 88 1015.7
20260905184623 77 20 1.7 5.2 0.00 0.01 0.01 89 1015.7
20260905183059 77 44 0.0 4.3 0.00 0.01 0.01 89 1015.9
20260905181610 77 49 0.9 6.1 0.00 0.01 0.01 90 1015.9
20260905180107 76 13 1.7 6.1 0.00 0.01 0.01 93 1015.7
20260905174559 74 23 0.9 6.1 0.00 0.01 0.01 94 1016.1
20260905173059 73 75 1.7 6.1 0.00 0.01 0.01 95 1016.0
20260905171604 73 11 2.6 6.1 0.00 0.01 0.01 96 1015.9
20260905170123 73 14 0.0 5.2 0.00 0.01 0.01 98 1016.1
20260905164605 73 8 1.7 3.5 0.01 0.15 0.01 98 1016.2
20260905163106 72 0 0.0 3.5 0.01 0.15 0.01 98 1016.1
20260905161603 72 56 0.9 3.5 0.01 0.15 0.01 98 1016.2
20260905160100 71 0 0.0 4.3 0.01 0.15 0.01 98 1016.2
20260905154609 71 53 0.9 6.1 0.00 0.14 0.00 98 1016.0
20260905153100 71 0 0.0 1.7 0.00 0.14 0.00 98 1016.1
20260905151603 71 23 0.9 4.3 0.00 0.14 0.00 98 1015.9
20260905150108 71 49 0.9 2.6 0.00 0.14 0.00 98 1015.8
20260905144605 72 29 0.9 2.6 0.00 0.22 0.00 98 1015.5
20260905143104 72 115 0.0 2.6 0.00 0.22 0.00 98 1015.2
20260905141629 71 73 0.9 2.6 0.00 0.22 0.00 99 1015.3
20260905140101 71 0 0.9 1.7 0.00 0.22 0.00 99 1015.2
20260905134605 71 0 0.9 3.5 0.00 0.22 0.00 99 1015.2
20260905133102 71 54 0.0 2.6 0.00 0.22 0.00 99 1015.2